Montpelier, VT

9:21 PM EDT on September 28, 2016 (GMT -0400)
Knapp State

Weather History for KMPV - February, 2012

Change the Weather History Date:

Wednesday, February 1, 2012

  Actual Average Record
Temperature  
Mean Temperature 39 °F 17 °F  
Max Temperature 49 °F 27 °F 55 °F (1989)
Min Temperature 29 °F 7 °F -22 °F (1962)
Degree Days  
Heating Degree Days 26 48  
Month to date heating degree days 26 48  
Since 1 July heating degree days 3967 4693  
Cooling Degree Days 0 0  
Month to date cooling degree days 0  
Year to date cooling degree days 0  
Moisture  
Dew Point 34 °F    
Average Humidity 81    
Maximum Humidity 92    
Minimum Humidity 69    
Precipitation  
Precipitation 0.08 in 0.08 in 1.00 in (1951)
Month to date precipitation 0.08 0.08  
Year to date precipitation 2.36 2.53  
Sea Level Pressure  
Sea Level Pressure 29.84 in    
Wind  
Wind Speed 4 mph (West)    
Max Wind Speed 21 mph    
Max Gust Speed 28 mph    
Visibility 9 miles    
Events Rain , Snow    
T = Trace of Precipitation, MM = Missing Value Source: NWS Daily Summary

Daily Weather History Graph

Daily Weather History Graph

Search for Another Location

Airport or City:

Trip Planner

Search our weather history database for the weather conditions in past years. The results will help you decide how hot, cold, wet, or windy it might be!

Date:

Astronomy

Feb. 01, 2012 Rise Set
Actual Time 7:08 AM EST 4:59 PM EST
Civil Twilight 6:37 AM EST 5:30 PM EST
Nautical Twilight 6:03 AM EST 6:04 PM EST
Astronomical Twilight 5:29 AM EST 6:38 PM EST
Moon 11:22 AM EST (2/1) 1:54 AM EST (2/1)
Length of Visible Light 10h 52m
Length of Day
9h 50m
Waxing Gibbous, 64% of the Moon is Illuminated
Feb 1
Waxing Gibbous
Feb 7
Full
Feb 14
Last Quarter
Feb 21
New
Feb 29
First Quarter

Hourly Weather History & Observations

Time (EST) Temp. Windchill Dew Point Humidity Pressure Visibility Wind Dir Wind Speed Gust Speed Precip Events Conditions
12:51 AM 34.0 °F 28.0 °F 26.1 °F 73% 29.95 in 10.0 mi SSW 6.9 mph - N/A   Overcast
1:51 AM 30.0 °F - 26.1 °F 85% 29.93 in 10.0 mi Calm Calm - N/A   Overcast
2:51 AM 28.9 °F - 26.1 °F 89% 29.91 in 10.0 mi Calm Calm - N/A   Overcast
3:51 AM 30.0 °F - 27.0 °F 88% 29.88 in 10.0 mi Calm Calm - 0.00 in   Overcast
4:51 AM 30.9 °F - 28.0 °F 89% 29.86 in 10.0 mi Calm Calm - 0.00 in   Overcast
5:51 AM 32.0 °F - 28.0 °F 85% 29.84 in 10.0 mi Calm Calm - N/A   Overcast
6:51 AM 32.0 °F 28.7 °F 28.9 °F 88% 29.83 in 10.0 mi North 3.5 mph - N/A   Overcast
7:51 AM 33.1 °F - 30.0 °F 89% 29.83 in 10.0 mi Calm Calm - 0.00 in   Overcast
8:51 AM 34.0 °F - 30.0 °F 85% 29.81 in 10.0 mi Calm Calm - N/A   Overcast
9:51 AM 39.9 °F 32.9 °F 33.1 °F 77% 29.81 in 10.0 mi SSE 11.5 mph - N/A   Overcast
10:51 AM 41.0 °F 36.4 °F 34.0 °F 76% 29.80 in 10.0 mi South 6.9 mph - N/A   Overcast
11:06 AM 46.4 °F 42.9 °F 37.4 °F 71% 29.76 in 10.0 mi Variable 6.9 mph - N/A   Overcast
11:51 AM 46.9 °F - 37.9 °F 71% 29.77 in 10.0 mi SSW 8.1 mph - N/A   Overcast
12:51 PM 46.9 °F - 39.0 °F 74% 29.75 in 10.0 mi Calm Calm - N/A   Overcast
1:05 PM 48.2 °F - 39.2 °F 71% 29.72 in 10.0 mi WSW 8.1 mph - N/A   Overcast
1:51 PM 48.9 °F - 39.0 °F 69% 29.74 in 10.0 mi SSW 6.9 mph - N/A   Overcast
2:51 PM 48.0 °F - 39.0 °F 71% 29.75 in 10.0 mi Variable 4.6 mph - 0.00 in   Overcast
3:06 PM 48.2 °F - 39.2 °F 71% 29.73 in 9.0 mi West 10.4 mph - 0.00 in Rain Light Rain
3:37 PM 42.8 °F 36.2 °F 39.2 °F 87% 29.76 in 2.5 mi West 12.7 mph 27.6 mph 0.06 in Rain Rain
3:47 PM 42.8 °F 37.5 °F 39.2 °F 87% 29.76 in 7.0 mi WSW 9.2 mph 24.2 mph 0.06 in Rain Light Rain
3:51 PM 43.0 °F 38.2 °F 39.0 °F 86% 29.80 in 9.0 mi WSW 8.1 mph - 0.06 in Rain Light Rain
4:01 PM 42.8 °F 37.5 °F 39.2 °F 87% 29.76 in 10.0 mi WSW 9.2 mph - 0.00 in Rain Light Rain
4:51 PM 43.0 °F 38.8 °F 39.0 °F 86% 29.82 in 10.0 mi SW 6.9 mph - 0.01 in   Overcast
5:08 PM 42.8 °F 38.0 °F 39.2 °F 87% 29.79 in 9.0 mi WSW 8.1 mph - 0.00 in Rain Light Rain
5:51 PM 39.9 °F 37.8 °F 37.0 °F 89% 29.88 in 10.0 mi Variable 3.5 mph - 0.00 in   Overcast
6:51 PM 37.0 °F 33.3 °F 35.1 °F 93% 29.91 in 10.0 mi NNE 4.6 mph - N/A   Overcast
7:01 PM 37.4 °F 32.8 °F 35.6 °F 93% 29.87 in 10.0 mi NNW 5.8 mph - N/A   Overcast
7:21 PM 35.6 °F 30.7 °F 33.8 °F 93% 29.88 in 10.0 mi NNW 5.8 mph - N/A   Overcast
7:51 PM 36.0 °F 29.0 °F 34.0 °F 93% 29.93 in 8.0 mi WNW 9.2 mph 18.4 mph 0.00 in Rain Light Rain
8:51 PM 37.0 °F - 32.0 °F 82% 29.96 in 10.0 mi Calm Calm - 0.01 in   Overcast
9:51 PM 37.0 °F - 32.0 °F 82% 29.96 in 10.0 mi Calm Calm - N/A   Overcast
10:51 PM 37.0 °F - 32.0 °F 82% 29.97 in 10.0 mi Calm Calm - N/A   Overcast
11:38 PM 33.8 °F 27.7 °F 30.2 °F 87% 29.97 in 4.0 mi NW 6.9 mph 18.4 mph 0.00 in Snow Light Snow
11:51 PM 34.0 °F 29.8 °F 30.9 °F 89% 30.01 in 9.0 mi NNW 4.6 mph - 0.00 in   Overcast